Location: Boone Canyon
(38.3180°N, 119.2504°W)
Time: 17:36:13
(UTC+00:00)

Cosmos 1707 Rocket - Pass Details

Date: 18 September 2020
Orbit: 606 x 630 km, 82.5° (Epoch: 19 October)

Event Time Altitude Azimuth Distance (km) Brightness Sun altitude
Rises 12:46:45 0° 199° (SSW) 2,847 6.7 -11.5°
Reaches altitude 10° 12:49:01 10° 205° (SSW) 1,948 5.8 -11.1°
Maximum altitude 12:53:11 48° 280° (W) 793 3.7 -10.3°
Drops below altitude 10° 12:57:23 10° 356° (N) 1,965 6.2 -9.5°
Sets 12:59:41 0° 2° (N) 2,876 7.1 -9.0°
